Sevilla, Spain

8:47 PM CET on February 14, 2016 (GMT +0100)
San Pablo

Weather History for LEZL - March, 2014

Change the Weather History Date:

Sunday, March 2, 2014

  Actual Average Record
Temperature  
Mean Temperature 63 °F -  
Max Temperature 69 °F 69 °F 84 °F (1997)
Min Temperature 57 °F 47 °F 35 °F (2004)
Degree Days  
Heating Degree Days 2    
Growing Degree Days 13 (Base 50)    
Moisture  
Dew Point 54 °F    
Average Humidity 76    
Maximum Humidity 88    
Minimum Humidity 51    
Precipitation  
Precipitation 0.00 in - - ()
Sea Level Pressure  
Sea Level Pressure 29.96 in    
Wind  
Wind Speed 14 mph ()    
Max Wind Speed 23 mph    
Max Gust Speed 30 mph    
Visibility 7.6 miles    
Events Rain    
Averages and records for this station are not official NWS values.
T = Trace of Precipitation, MM = Missing Value Source: Averaged Metar Reports

Daily Weather History Graph

Daily Weather History Graph

Search for Another Location

Airport or City:

Trip Planner

Search our weather history database for the weather conditions in past years. The results will help you decide how hot, cold, wet, or windy it might be!

Date:

Astronomy

Mar. 02, 2014 Rise Set
Actual Time 7:53 AM CET 7:18 PM CET
Civil Twilight 7:27 AM CET 7:44 PM CET
Nautical Twilight 6:57 AM CET 8:14 PM CET
Astronomical Twilight 6:27 AM CET 8:45 PM CET
Moon 8:18 AM CET (3/2) 8:55 PM CET (3/2)
Length of Visible Light 12h 16m
Length of Day
11h 24m
New Moon, 2% of the Moon is Illuminated
Mar 2
New Moon
Mar 8
First Quarter
Mar 16
Full
Mar 24
Last Quarter
Mar 30
New

Hourly Weather History & Observations

Time (CET) Temp. Dew Point Humidity Pressure Visibility Wind Dir Wind Speed Gust Speed Precip Events Conditions
12:00 AM 59.0 °F 55.4 °F 88% 29.92 in 6.2 mi WSW 16.1 mph - N/A   Mostly Cloudy
12:30 AM 59.0 °F 53.6 °F 82% 29.92 in 6.2 mi West 18.4 mph - N/A   Mostly Cloudy
1:00 AM 59 °F 55 °F 84% 29.93 in 7 mi WSW 19.6 mph - - Rain Drizzle
1:00 AM 59.0 °F 55.4 °F 88% 29.92 in 6.2 mi West 18.4 mph - N/A   Drizzle
4:00 AM 58 °F 53 °F 79% 29.91 in 9 mi WSW 18.4 mph - -   Overcast
4:30 AM 57.2 °F 53.6 °F 88% 29.89 in 6.2 mi WSW 13.8 mph - N/A   Mostly Cloudy
5:00 AM 57.2 °F 53.6 °F 88% 29.89 in 6.2 mi WSW 11.5 mph - N/A   Mostly Cloudy
5:30 AM 57.2 °F 53.6 °F 88% 29.89 in 6.2 mi WSW 11.5 mph - N/A   Mostly Cloudy
6:00 AM 57.2 °F 53.6 °F 88% 29.92 in 6.2 mi West 12.7 mph - N/A   Mostly Cloudy
6:30 AM 57.2 °F 53.6 °F 88% 29.92 in 6.2 mi West 13.8 mph - N/A   Mostly Cloudy
7:00 AM 57 °F 53 °F 81% 29.94 in 12 mi West 13.8 mph - -   Mostly Cloudy
7:00 AM 57.2 °F 53.6 °F 88% 29.92 in 6.2 mi West 13.8 mph - N/A   Mostly Cloudy
7:30 AM 57.2 °F 53.6 °F 88% 29.92 in 6.2 mi West 13.8 mph - N/A   Mostly Cloudy
8:00 AM 57.2 °F 53.6 °F 88% 29.95 in 6.2 mi WSW 11.5 mph - N/A   Mostly Cloudy
8:30 AM 57.2 °F 53.6 °F 88% 29.95 in 6.2 mi WSW 11.5 mph - N/A   Mostly Cloudy
9:00 AM 57.2 °F 53.6 °F 88% 29.95 in 6.2 mi West 13.8 mph - N/A   Mostly Cloudy
9:30 AM 57.2 °F 53.6 °F 88% 29.98 in 6.2 mi West 12.7 mph - N/A   Scattered Clouds
10:00 AM 61 °F 53 °F 68% 29.98 in 16 mi West 17.3 mph - -   Scattered Clouds
10:00 AM 60.8 °F 53.6 °F 77% 29.98 in 6.2 mi West 16.1 mph - N/A   Partly Cloudy
10:30 AM 60.8 °F 53.6 °F 77% 29.98 in 6.2 mi West 13.8 mph - N/A   Scattered Clouds
11:00 AM 60.8 °F 51.8 °F 72% 29.98 in 6.2 mi West 12.7 mph - N/A   Scattered Clouds
11:30 AM 62.6 °F 50.0 °F 63% 29.98 in 6.2 mi West 17.3 mph - N/A   Scattered Clouds
12:00 PM 64.4 °F 51.8 °F 64% 29.98 in 6.2 mi WNW 16.1 mph - N/A   Scattered Clouds
12:30 PM 64.4 °F 51.8 °F 64% 29.98 in 6.2 mi WNW 16.1 mph - N/A   Partly Cloudy
1:00 PM 68 °F 54 °F 51% 30.00 in 19 mi West 15.0 mph - -   Mostly Cloudy
1:00 PM 66.2 °F 53.6 °F 64% 29.98 in 6.2 mi West 13.8 mph - N/A   Mostly Cloudy
1:30 PM 66.2 °F 51.8 °F 60% 29.98 in 6.2 mi West 12.7 mph - N/A   Mostly Cloudy
2:00 PM 68.0 °F 53.6 °F 60% 29.98 in 6.2 mi West 18.4 mph - N/A   Scattered Clouds
2:30 PM 66.2 °F 53.6 °F 64% 29.95 in 6.2 mi West 19.6 mph - N/A   Scattered Clouds
3:00 PM 66.2 °F 53.6 °F 64% 29.95 in 6.2 mi West 18.4 mph - N/A   Mostly Cloudy
3:30 PM 66.2 °F 55.4 °F 68% 29.95 in 6.2 mi West 17.3 mph - N/A   Mostly Cloudy
4:00 PM 67 °F 56 °F 58% 29.96 in 19 mi West 18.4 mph - -   Mostly Cloudy
4:00 PM 66.2 °F 55.4 °F 68% 29.95 in 6.2 mi West 16.1 mph - N/A   Scattered Clouds
4:30 PM 66.2 °F 55.4 °F 68% 29.95 in 6.2 mi West 19.6 mph - N/A   Scattered Clouds
5:00 PM 64.4 °F 55.4 °F 73% 29.95 in 6.2 mi West 23.0 mph - N/A   Scattered Clouds
5:30 PM 62.6 °F 55.4 °F 77% 29.95 in 6.2 mi West 18.4 mph - N/A   Scattered Clouds
6:00 PM 62.6 °F 53.6 °F 72% 29.95 in 6.2 mi West 17.3 mph 29.9 mph N/A   Mostly Cloudy
6:30 PM 62.6 °F 53.6 °F 72% 29.95 in 6.2 mi West 17.3 mph - N/A   Mostly Cloudy
7:00 PM 61 °F 55 °F 76% 29.98 in 19 mi West 12.7 mph - -   Mostly Cloudy
7:00 PM 60.8 °F 55.4 °F 82% 29.98 in 6.2 mi West 13.8 mph - N/A   Mostly Cloudy
7:30 PM 60.8 °F 55.4 °F 82% 29.98 in 6.2 mi West 13.8 mph - N/A   Mostly Cloudy
8:00 PM 60.8 °F 53.6 °F 77% 29.98 in 6.2 mi West 13.8 mph - N/A   Mostly Cloudy
8:30 PM 60.8 °F 53.6 °F 77% 29.98 in 6.2 mi WSW 12.7 mph - N/A   Mostly Cloudy
9:00 PM 60.8 °F 53.6 °F 77% 29.98 in 6.2 mi West 17.3 mph - N/A   Mostly Cloudy
9:30 PM 60.8 °F 53.6 °F 77% 30.01 in 6.2 mi West 16.1 mph - N/A   Mostly Cloudy
10:00 PM 60 °F 53 °F 72% 30.01 in 19 mi WSW 13.8 mph - -   Mostly Cloudy
10:00 PM 59.0 °F 53.6 °F 82% 30.01 in 6.2 mi West 15.0 mph - N/A   Scattered Clouds
10:30 PM 59.0 °F 53.6 °F 82% 30.01 in 6.2 mi West 15.0 mph - N/A   Mostly Cloudy
11:00 PM 59.0 °F 53.6 °F 82% 30.01 in 6.2 mi WSW 12.7 mph - N/A   Mostly Cloudy
11:30 PM 59.0 °F 53.6 °F 82% 30.01 in 6.2 mi SW 12.7 mph - N/A   Mostly Cloudy